If you wish to contribute or participate in the discussions about articles you are invited to join SKYbrary as a registered user

 Actions

Cusco/Alejandro Velasco Astete International Airport

From SKYbrary Wiki

SPZO
Airport
ICAO: SPZO – IATA: CUZ
Summary
Name Cusco/Alejandro Velasco Astete International Airport
Region South America and Caribbean
Territory Peru PE.gif
Location Cusco, Cusco
Serving Cusco
Elevation 3,310.128 m
10,860 ft3,310.128 m
Coordinates 13° 32' 9.00" S, 71° 56' 20.00" W
Runways
Designator Length Width Surface ROPS
10/28 3397 m11,145.013 ft
45 m147.638 ft
ASP /


METAR
Observation SPZO 150800Z 00000KT 9999 NSC 05/00 Q1033 RMK PP000
Station Cuzco
Date/Time 15 September 2019 08:00:00
Wind direction
Wind speed 00 kts
Lowest cloud amount n/a
Temperature 5°C
Dew point 0°C
Humidity 70%
QNH 1033 hPa
Weather condition n/a

International airport located in the city of Cusco, in southeastern Peru.

Climatology

Sub-tropical Highland climate (Köppen climate classification Cwb).

Maps

Terrain

Loading map...

Airport Layout

Loading map...


Accidents & Serious Incidents at or in vicinity of SPZO

None on SKYbrary